Lid_Strength_Index
2 2 2 1 1 1 0 2 6 -0 -1 7 6 9 6 5 6 5 6 7 8 9 9 10 9 9 8 6 6 9 7 10 14 11 7 6 6 8 8 11 12 10 10 11
2 2 2 1 1 1 1 4 3 0 0 10 9 7 6 6 6 6 7 8 7 7 9 12 9 9 8 7 8 10 9 11 15 15 10 7 8 7 7 8 8 11 12 11
2 2 2 1 1 1 1 3 8 3 2 4 7 8 8 8 5 6 5 6 6 9 9 7 10 10 8 7 7 7 8 11 12 17 12 8 9 8 8 8 10 10 10 9
2 2 2 1 1 1 1 3 7 5 9 7 7 7 8 9 9 6 5 7 7 8 10 9 11 9 8 7 7 8 10 13 10 11 11 10 8 8 8 9 8 10 9 9
2 2 2 1 1 1 1 5 6 4 6 6 7 7 9 9 8 8 8 9 7 7 9 9 11 9 9 12 9 10 9 14 10 11 12 10 10 8 8 8 8 8 8 8
2 2 2 1 1 1 2 2 3 5 7 7 8 8 8 8 7 6 6 7 8 9 7 6 5 5 6 7 8 9 11 12 11 14 12 12 12 9 8 8 7 7 9 8
4 2 2 1 1 1 1 2 3 7 9 7 7 8 7 7 7 8 6 6 9 6 4 4 5 5 6 6 6 6 10 12 11 13 13 19 9 6 6 7 7 6 6 6
5 4 2 1 1 1 2 1 4 6 9 7 7 7 8 6 6 7 6 6 4 3 6 9 9 9 8 7 6 7 7 10 14 17 17 12 10 8 8 8 8 6 6 5
5 5 3 1 1 1 1 2 1 4 9 7 6 7 8 9 8 7 6 3 3 4 8 9 13 14 11 13 10 6 7 8 13 14 17 20 13 7 6 6 12 7 6 6
4 5 4 3 1 1 1 2 0 4 8 5 6 8 8 6 7 8 7 7 6 5 10 13 14 13 10 14 16 11 10 11 14 14 15 14 10 7 6 12 13 6 6 6
4 5 5 4 2 1 1 2 -1 4 6 5 4 4 6 6 7 10 7 8 8 7 12 13 13 13 12 12 12 13 12 14 13 12 15 18 7 7 11 9 6 5 5 5
4 5 5 5 3 2 1 3 0 1 5 5 2 2 1 2 3 6 7 8 8 7 10 9 10 13 12 12 16 10 15 12 14 13 14 9 7 7 5 5 6 5 5 4
3 5 5 5 4 3 2 1 1 3 5 4 3 4 1 -0 1 1 8 6 5 6 5 7 10 13 10 15 14 12 10 8 12 11 10 9 7 6 6 5 5 4 4 4
3 4 5 5 5 4 2 2 1 3 4 8 5 1 2 0 0 1 3 5 4 4 4 7 9 11 7 11 11 11 10 9 11 11 8 8 7 6 5 5 4 4 3 3
3 3 4 4 5 5 3 1 1 1 4 7 5 2 1 1 1 2 2 4 5 6 7 8 8 5 7 8 9 9 7 10 12 12 8 8 7 5 5 5 5 4 4 4
2 3 4 5 5 5 4 4 0 -0 1 7 8 2 3 2 2 2 3 3 4 5 7 7 6 4 6 8 12 8 6 6 6 8 6 6 5 4 4 5 5 4 4 4
2 3 4 5 4 3 4 5 1 1 1 6 8 7 3 2 3 3 4 2 4 5 6 6 6 6 6 9 12 7 6 6 6 5 5 7 6 7 5 4 4 4 4 4
3 3 4 4 4 4 4 3 3 1 2 4 9 8 5 2 6 7 3 5 4 4 6 5 7 5 6 9 8 7 6 6 6 6 5 6 5 4 5 4 4 4 4 4
3 3 3 3 3 4 4 4 4 2 3 7 7 9 12 3 5 4 5 4 8 4 6 5 6 9 11 8 7 7 6 7 7 5 5 5 6 6 5 5 5 5 4 4
3 2 2 4 4 4 4 5 7 6 5 5 7 4 8 4 5 7 6 5 8 9 6 4 7 9 6 6 5 5 5 5 5 7 7 6 7 6 6 5 5 5 4 4
1 3 4 3 2 3 5 8 9 8 9 6 5 5 6 3 8 8 5 8 7 10 7 7 9 10 6 4 5 4 4 4 5 5 4 4 4 5 5 5 4 4 4 4
5 5 4 4 5 6 8 8 7 8 8 5 6 5 4 4 3 7 7 9 7 12 5 8 10 7 5 4 4 4 4 3 4 4 5 4 4 4 4 4 4 4 3 3
4 6 8 7 6 11 10 11 8 8 6 6 6 6 4 4 4 7 8 11 12 6 10 9 8 6 5 4 3 3 3 3 3 3 4 4 4 4 3 4 3 3 4 3
6 6 11 8 9 8 7 7 6 4 4 6 5 6 6 5 7 7 11 8 7 12 13 12 7 6 5 4 3 3 3 3 4 3 3 4 4 4 4 4 5 4 5 4
6 6 11 8 5 5 4 4 3 3 4 5 6 6 6 7 8 7 9 11 14 12 12 7 5 4 4 4 3 3 3 3 3 3 3 3 3 3 3 4 4 5 5 5
6 6 7 5 6 6 5 4 5 3 3 3 5 8 9 9 8 11 11 13 14 12 8 5 3 4 3 3 3 3 3 2 2 2 3 3 3 3 3 3 4 5 6 6
7 7 4 5 5 5 4 4 4 3 4 6 7 10 10 6 9 12 9 12 10 7 5 4 3 3 3 2 3 3 3 2 2 2 2 3 3 2 3 3 3 4 4 6